Location: Wanzleben
(52.0609°N, 11.4408°E)
Time: 11:23:00
(UTC+00:00)

Cosmos 1674 - Pass Details

Date: 18 September 2020
Orbit: 494 x 518 km, 82.5° (Epoch: 25 October)

Event Time Altitude Azimuth Distance (km) Brightness Sun altitude
Rises 19:01:23 0° 351° (N) 2,656 6.8 -15.8°
Reaches altitude 10° 19:03:33 10° 354° (N) 1,764 5.8 -16.1°
Maximum altitude 19:07:25 65° 78° (ENE) 575 2.6 -16.6°
Enters shadow 19:09:05 31° 150° (SSE) 925 3.5 -16.8°
